Location: Chrząstowo
(52.0654°N, 17.1290°E)
Time: 22:07:27
(UTC+01:00)

N. Korean satellite - Visible Passes

Search period start: 12 December 2019 00:00
Search period end: 22 December 2019 00:00
Orbit: 455 x 506 km, 97.2° (Epoch: 12 December)

Date Brightness Start Highest point End Pass type
(mag) Time Alt. Az. Time Alt. Az. Time Alt. Az.
12 Dec 8.8 05:09:39 10° NE 05:12:40 25° E 05:15:38 10° SSE visible
12 Dec 7.4 06:42:58 10° N 06:46:05 29° WNW 06:49:08 10° SW visible
12 Dec 8.6 17:23:23 10° SSW 17:26:45 33° W 17:30:07 10° NNW visible
13 Dec 9.8 04:45:01 10° NE 04:47:00 14° E 04:48:58 10° ESE visible
13 Dec 6.6 06:17:17 10° N 06:20:46 53° WNW 06:24:09 10° SSW visible
13 Dec 7.2 16:57:33 10° S 17:01:14 62° W 17:04:53 10° NNW visible
14 Dec 6.6 05:51:48 10° NNE 05:55:21 78° ESE 05:58:48 10° S visible
14 Dec 6.6 16:32:07 10° SSE 16:35:47 69° ENE 16:39:26 10° N visible
14 Dec 10.0 18:07:57 10° WSW 18:09:36 13° W 18:11:15 10° WNW visible
15 Dec 7.9 05:26:30 10° NNE 05:29:49 39° E 05:33:05 10° SSE visible
15 Dec 7.8 07:00:22 10° NNW 07:03:00 20° WNW 07:05:36 10° WSW visible
15 Dec 9.3 17:41:00 10° SW 17:43:55 22° W 17:46:51 10° NW visible
16 Dec 9.2 05:01:29 10° NE 05:04:13 21° E 05:06:55 10° SE visible
16 Dec 7.1 06:34:31 10° N 06:37:44 34° WNW 06:40:54 10° SW visible
16 Dec 8.1 17:14:52 10° SSW 17:18:20 39° W 17:21:49 10° NNW visible
17 Dec 10.0 04:37:14 10° ENE 04:38:31 12° E 04:39:47 10° ESE visible
17 Dec 6.4 06:08:52 10° N 06:12:22 66° WNW 06:15:48 10° SSW visible
17 Dec 6.8 16:49:10 10° S 16:52:50 77° WSW 16:56:30 10° NNW visible
18 Dec 6.9 05:43:25 10° NNE 05:46:55 62° ESE 05:50:20 10° S visible
18 Dec 6.7 16:23:50 10° SSE 16:27:26 55° ENE 16:30:59 10° N visible
18 Dec 9.8 17:58:58 10° SW 18:01:09 15° W 18:03:17 10° NW visible
19 Dec 8.4 05:18:12 10° NNE 05:21:22 31° E 05:24:29 10° SSE visible
19 Dec 7.6 06:51:49 10° N 06:54:39 23° WNW 06:57:26 10° WSW visible
19 Dec 9.0 17:32:22 10° SSW 17:35:29 26° W 17:38:36 10° NW visible
20 Dec 9.4 04:53:20 10° NE 04:55:44 17° E 04:58:05 10° SE visible
20 Dec 6.8 06:26:02 10° N 06:29:21 41° WNW 06:32:36 10° SW visible
20 Dec 7.7 17:06:23 10° S 17:09:55 48° W 17:13:27 10° NNW visible
21 Dec 6.3 06:00:26 10° NNE 06:03:57 82° WNW 06:07:23 10° SSW visible
21 Dec 6.5 16:40:48 10° SSE 16:44:27 86° ENE 16:48:03 10° NNW visible
